Temperature
24 24 23 23 23 23 22 22 22 21 21 21 20 20 20 20 19 19 19 19 19 19 19 19 19 19 19 19 19 18 18 18 18 18 18 18 18 18 18 18 18 18 18
23 23 23 23 23 23 22 22 21 21 21 21 21 20 20 19 19 19 19 19 19 19 19 19 19 19 19 19 18 18 18 18 18 18 18 18 18 18 18 18 18 18 18
23 23 23 23 23 23 22 22 22 21 21 21 20 20 20 20 19 19 19 19 19 19 19 19 19 18 18 18 18 18 18 18 18 18 18 18 18 18 18 18 18 18 18
23 23 23 23 23 22 22 22 22 21 21 21 20 20 20 20 19 19 19 19 19 19 19 19 19 18 18 18 18 18 18 18 18 18 18 18 18 17 17 18 18 18 18
24 23 23 23 23 22 22 22 22 21 21 21 20 20 20 20 19 19 19 19 19 19 19 19 19 18 18 18 18 18 18 18 18 18 18 17 17 17 17 17 18 18 18
24 24 23 23 22 22 22 22 21 21 21 20 20 20 20 19 19 19 19 19 19 19 19 19 19 18 18 18 18 18 18 18 18 17 17 17 17 17 17 17 17 17 17
24 23 23 22 22 22 21 21 21 21 20 20 20 20 20 19 19 19 19 19 19 19 18 18 18 18 18 18 18 18 18 17 17 17 17 17 17 17 17 17 17 17 17
24 23 23 23 22 22 22 21 21 21 20 20 20 20 19 19 19 19 19 19 18 18 18 18 18 18 18 18 18 17 17 17 17 17 17 17 17 17 16 16 16 16 16
23 23 23 23 22 22 22 21 21 21 20 20 20 19 19 19 19 19 18 18 18 18 18 18 18 18 18 17 17 17 17 17 17 17 17 17 17 16 16 16 16 16 15
23 23 23 22 22 22 21 21 21 21 20 20 19 19 19 19 19 18 18 18 18 18 18 18 18 18 17 17 17 17 17 17 17 16 16 16 16 16 16 16 16 16 15
23 22 22 22 22 21 21 21 21 20 20 20 19 19 19 19 18 18 18 18 18 18 18 18 17 17 17 17 17 17 17 16 16 16 16 16 16 16 16 16 16 15 15
23 23 23 22 21 21 21 21 20 20 20 20 19 19 19 18 18 18 18 18 18 17 17 17 17 17 17 16 16 16 16 16 16 16 16 16 16 16 16 15 15 15 15
23 23 22 22 21 21 21 21 20 20 20 20 19 19 19 18 18 18 18 17 17 17 17 17 17 16 16 16 16 16 16 16 15 15 15 15 15 15 15 15 15 15 15
23 22 22 21 21 21 21 21 20 20 20 19 19 19 18 18 18 17 17 17 17 17 17 16 16 16 16 16 16 16 15 15 15 15 15 15 15 15 15 15 15 15 14
22 22 22 21 21 21 21 20 20 20 19 19 19 18 18 18 17 17 17 17 17 16 16 16 16 16 16 15 15 15 15 15 15 15 15 15 15 15 15 15 14 14 14
21 21 21 21 21 21 20 20 20 20 19 19 19 18 18 17 17 17 17 16 16 16 16 16 16 15 15 15 15 15 15 15 15 15 15 15 14 15 14 14 14 14 14
21 21 21 21 21 20 20 20 20 19 19 19 18 18 18 17 17 17 16 16 16 16 16 15 15 15 15 15 15 15 15 15 14 14 14 14 14 14 14 14 14 14 14
21 21 21 21 20 20 20 20 19 19 19 18 18 17 17 17 17 16 16 16 16 15 15 15 15 15 15 15 14 14 14 14 14 14 14 14 14 14 13 13 14 13 13
21 21 20 20 20 20 20 19 19 19 18 18 17 17 17 16 16 16 16 15 15 15 15 15 15 14 14 14 14 14 14 14 14 14 13 13 13 13 13 13 13 13 13
20 20 20 20 20 19 19 19 18 18 18 17 17 17 16 16 16 15 15 15 15 15 15 14 14 14 14 14 14 14 14 13 13 13 13 13 13 13 13 13 13 13 13
20 19 19 19 19 19 18 18 18 17 17 17 17 16 16 16 15 15 15 15 14 14 14 14 14 14 14 14 14 13 13 13 13 13 13 13 13 13 13 13 13 12 12
19 19 19 18 18 18 18 17 17 17 17 17 16 16 16 15 15 15 15 14 14 14 14 14 14 13 13 13 13 13 13 13 13 13 13 13 12 12 12 12 12 12 12
18 18 18 18 17 17 17 17 17 16 16 16 16 16 15 15 15 14 14 14 14 14 14 13 13 13 13 13 13 13 13 13 13 13 12 12 12 12 12 12 12 12 12
18 18 17 17 17 17 16 16 16 16 16 15 15 15 15 14 14 14 14 14 13 13 13 13 13 13 13 13 13 12 12 12 12 12 12 12 12 12 12 12 12 12 11
17 17 17 16 16 16 16 16 15 15 15 15 14 14 14 14 14 14 14 13 13 13 13 13 13 13 12 12 12 12 12 12 12 12 12 12 12 12 11 11 11 11 11
16 16 16 16 16 15 15 15 15 15 14 14 14 14 14 13 13 13 13 13 13 13 13 13 13 12 12 12 12 12 12 12 12 11 11 11 11 11 11 11 11 11 11
Wind_Speed
9 9 10 11 10 9 8 7 7 6 5 3 3 3 2 2 2 2 3 4 4 4 3 1 1 1 1 0 1 0 1 1 1 2 2 2 1 1 1 1 2 2 4
8 9 8 9 10 10 9 8 7 7 6 4 3 3 3 2 2 1 2 3 4 3 3 2 1 0 1 1 2 1 1 1 1 1 2 2 3 2 1 1 2 2 3
12 10 10 10 10 10 10 9 8 7 5 4 3 3 3 2 2 1 1 1 3 4 3 2 1 1 1 0 1 1 1 1 1 1 2 2 1 2 2 1 1 1 2
11 11 10 10 11 10 9 8 7 6 5 5 5 5 4 3 3 2 1 1 2 3 3 2 1 1 1 1 1 0 0 1 0 1 0 2 3 1 2 3 2 1 2
12 12 12 12 11 10 9 8 7 6 5 5 5 5 3 2 2 2 2 1 1 1 2 2 1 1 1 1 1 1 1 1 1 1 0 0 0 1 2 2 3 3 2
10 10 10 10 9 9 8 8 8 6 6 6 5 5 5 4 4 2 2 1 1 1 1 2 1 1 1 1 1 1 1 1 1 1 1 1 1 2 2 3 3 3 3
11 10 11 11 11 11 10 9 9 7 6 6 5 5 5 5 5 4 3 2 1 1 2 1 1 1 1 1 1 0 1 2 1 2 2 2 2 2 2 2 2 2 2
9 10 11 12 12 12 10 9 9 8 7 6 5 4 5 4 3 3 3 3 2 2 2 1 1 1 0 0 1 0 1 1 2 2 2 2 2 2 3 3 2 1 2
8 9 11 12 11 11 10 9 9 8 7 6 5 4 4 4 3 3 3 2 2 2 1 2 1 1 1 1 1 1 1 1 1 2 2 2 2 2 2 2 3 3 2
8 8 9 9 9 9 8 7 7 8 7 7 6 5 4 4 3 3 2 2 2 2 2 2 1 1 1 1 1 1 2 1 2 1 1 2 2 2 2 2 2 3 4
10 10 8 8 8 8 8 8 7 7 7 6 5 4 4 4 3 3 3 2 2 2 2 2 2 2 2 1 1 2 1 1 2 2 1 3 3 2 2 1 1 2 3
10 9 8 7 7 7 7 7 6 7 7 6 5 4 4 3 3 3 3 2 2 2 2 2 2 2 2 1 1 2 1 1 2 2 2 3 2 2 2 1 2 2 3
8 8 7 6 6 6 6 6 6 6 6 6 5 4 4 4 4 4 3 2 2 2 2 2 3 3 2 2 2 2 2 2 3 2 2 3 2 2 2 2 2 3 2
8 8 7 6 6 6 6 6 6 6 6 5 5 5 5 5 4 4 3 3 3 2 3 3 3 3 3 2 2 1 2 2 2 2 2 3 3 3 3 3 3 3 2
7 7 7 6 6 5 5 5 5 5 6 5 5 5 4 3 3 3 3 3 2 3 2 2 2 2 2 2 2 2 2 2 2 3 3 3 3 4 3 3 3 3 2
5 6 6 6 6 6 5 4 4 5 5 5 5 4 4 3 3 3 2 2 2 2 1 2 2 2 2 2 2 2 2 2 2 3 3 4 3 4 4 4 4 4 4
5 5 6 6 6 6 6 5 5 4 5 5 4 4 4 3 3 3 2 2 2 2 2 2 2 2 3 3 3 3 2 2 3 3 3 3 3 3 3 4 4 4 5
6 5 4 4 4 5 5 5 4 5 5 4 3 3 3 3 2 2 3 3 3 2 2 3 3 3 4 4 4 4 2 2 3 3 3 2 3 3 2 2 2 3 4
5 4 5 5 4 4 5 5 4 4 4 3 3 3 3 3 3 3 4 3 3 3 3 3 3 3 4 4 4 2 1 2 3 3 2 2 3 4 2 1 2 4 5
4 4 4 5 5 4 5 5 4 4 4 4 3 3 3 3 3 4 3 2 3 3 3 3 3 3 3 3 2 2 1 2 3 3 3 4 5 5 4 3 3 4 5
5 5 5 4 3 4 5 5 4 3 3 3 3 2 3 3 3 3 2 2 2 2 2 2 2 2 3 2 2 1 2 3 3 3 3 4 5 6 6 4 4 7 6
5 5 5 3 3 4 5 4 2 1 1 2 2 2 2 2 2 2 2 1 1 1 2 2 2 3 3 2 3 3 4 4 4 4 4 5 6 6 5 4 5 6 4
5 5 5 4 3 3 4 3 1 1 2 1 1 1 1 1 1 2 2 1 1 2 2 2 3 3 3 3 4 3 4 5 4 4 6 6 6 4 4 5 5 3 2
3 4 5 4 2 1 2 2 1 1 2 1 1 1 1 1 1 1 2 2 2 2 2 2 3 3 2 2 2 2 3 3 3 3 5 5 4 2 3 4 3 2 2
2 3 3 3 2 2 1 1 1 2 2 0 1 1 1 2 2 2 2 3 4 4 5 4 4 3 3 5 5 3 2 2 3 2 2 2 2 2 3 3 3 3 2
3 3 2 2 1 1 1 0 0 2 2 1 1 1 2 2 2 2 2 3 4 5 6 7 5 4 5 5 4 4 3 3 2 1 1 2 2 3 3 3 3 3 4
Wind_Direction
176 170 170 169 160 158 157 160 154 158 152 144 140 138 145 154 149 154 148 139 136 126 109 111 105 90 104 243 284 316 359 326 0 38 3 355 338 204 199 205 188 195 207
169 171 171 168 168 166 165 163 164 166 165 167 166 158 149 157 156 150 126 130 129 135 129 121 128 96 53 1 0 28 14 325 33 103 76 6 348 339 292 198 182 190 203
176 176 177 177 169 170 172 172 170 165 166 156 133 118 98 86 93 121 160 158 141 134 121 133 122 91 119 262 319 14 105 358 354 106 134 135 245 308 320 284 232 200 200
177 176 179 177 175 176 171 164 160 157 154 144 142 145 150 162 184 185 185 163 144 139 137 114 132 159 164 203 282 270 194 126 326 322 162 174 173 177 311 320 305 264 217
180 178 178 176 174 170 164 157 151 149 143 144 151 149 152 164 157 154 147 146 153 170 153 130 149 180 196 205 213 212 202 176 183 207 254 327 267 180 184 274 306 313 273
179 175 169 159 164 166 161 156 154 157 152 151 153 155 158 156 149 159 162 171 227 242 203 158 156 186 201 209 213 213 195 197 178 180 173 178 192 218 199 226 266 284 284
173 170 161 162 166 169 168 165 160 162 164 162 167 167 165 159 165 174 176 175 199 222 236 209 187 202 207 192 198 189 228 223 206 213 217 209 216 199 185 191 243 271 286
166 170 170 171 170 168 167 168 169 170 172 170 175 175 168 168 176 178 174 180 197 211 215 200 195 215 205 178 161 180 239 214 222 238 223 226 242 210 196 190 185 264 292
159 170 176 171 168 167 170 170 171 173 173 171 167 164 165 163 168 170 173 180 199 201 192 194 199 207 200 195 165 204 253 251 239 243 230 231 251 235 224 205 185 184 232
159 164 164 162 164 163 160 166 172 176 173 170 174 173 177 174 167 163 177 187 201 205 194 207 203 213 237 245 212 255 272 260 267 249 249 259 262 260 251 228 209 196 200
160 161 157 156 159 160 159 166 168 166 166 172 178 176 180 175 160 165 185 196 208 203 199 202 195 205 226 240 246 270 280 274 283 292 275 266 259 262 271 247 218 213 191
154 153 148 149 151 156 157 158 162 163 168 172 177 183 179 173 173 185 199 198 208 212 206 202 204 218 230 239 244 270 282 258 272 285 289 281 276 271 259 238 234 230 208
135 133 135 141 145 147 152 154 164 168 170 170 175 180 180 180 192 201 206 203 212 224 220 210 218 231 231 225 233 236 254 250 251 250 250 264 265 277 270 254 246 246 238
135 135 139 144 145 147 153 159 173 172 169 171 174 181 192 195 201 206 210 210 209 219 228 226 226 227 224 217 220 245 260 263 266 256 248 254 241 251 258 258 244 237 237
133 139 144 145 145 150 157 163 170 171 170 167 174 188 194 190 194 206 214 211 212 224 230 235 244 242 229 229 227 245 253 267 286 284 271 264 268 264 253 254 238 222 227
140 143 145 147 153 159 162 162 169 167 161 166 179 183 183 186 191 202 206 215 229 236 232 232 232 251 259 264 241 231 251 257 264 276 284 283 288 287 281 277 257 228 221
148 157 165 165 164 162 157 166 171 165 159 170 177 179 183 185 194 199 193 213 224 232 234 235 229 249 262 258 251 241 230 236 244 246 263 286 300 304 297 298 299 269 251
147 156 161 157 161 162 157 154 146 157 165 171 175 178 172 183 192 187 208 226 227 219 227 240 238 240 267 267 259 248 228 244 254 247 244 253 276 283 271 291 307 287 271
145 154 150 143 143 150 152 140 138 149 155 168 182 186 178 187 199 210 222 229 227 232 232 234 230 233 268 278 263 223 214 248 265 258 255 239 258 277 278 286 288 295 293
115 128 122 115 121 133 135 132 140 146 170 181 189 197 189 199 214 223 225 226 226 233 234 248 245 234 255 285 287 211 198 248 269 276 270 262 260 269 266 245 251 275 282
109 112 110 113 128 130 120 122 124 152 189 177 178 189 195 197 204 217 220 229 236 237 238 245 260 252 255 296 306 218 201 231 249 265 275 275 276 277 277 263 242 250 261
101 106 104 98 102 110 114 116 143 194 149 148 159 183 198 203 209 208 234 226 212 221 237 249 271 272 270 260 264 255 244 236 229 248 260 270 281 281 282 277 267 269 270
116 113 114 104 91 103 119 133 201 142 106 114 172 197 206 215 202 198 220 233 221 217 233 235 248 270 281 280 275 274 268 255 246 258 266 274 283 286 277 278 282 284 267
115 115 114 114 112 108 115 150 163 124 112 130 221 202 192 234 232 212 204 204 217 222 228 236 247 263 269 276 290 286 277 287 283 288 295 298 297 300 292 300 300 281 257
100 111 126 143 161 149 133 117 117 118 119 164 242 236 219 213 222 243 238 226 226 217 212 220 218 217 245 252 240 228 249 258 261 277 308 319 322 315 312 314 311 300 302
114 113 118 129 132 120 114 315 172 139 138 201 260 238 226 225 225 235 288 299 268 255 228 216 209 228 235 252 246 250 256 262 238 176 261 271 268 270 274 280 290 288 286
Height
1513 1514 1516 1517 1519 1521 1522 1524 1525 1526 1527 1528 1529 1530 1531 1531 1532 1532 1532 1532 1533 1533 1533 1532 1532 1532 1531 1530 1530 1529 1528 1527 1527 1526 1526 1527 1527 1527 1527 1527 1528 1528 1528
1511 1512 1514 1515 1517 1519 1520 1523 1524 1525 1527 1528 1528 1529 1530 1531 1532 1532 1532 1532 1532 1532 1531 1531 1531 1531 1530 1530 1529 1529 1528 1527 1526 1526 1526 1526 1527 1526 1526 1526 1526 1527 1527
1507 1510 1512 1513 1515 1517 1519 1521 1523 1524 1526 1527 1528 1529 1529 1530 1530 1531 1531 1531 1531 1531 1530 1530 1530 1530 1530 1529 1528 1528 1527 1527 1526 1525 1526 1526 1525 1525 1525 1525 1525 1525 1526
1505 1507 1509 1511 1513 1516 1518 1520 1522 1523 1525 1526 1527 1527 1527 1528 1529 1530 1530 1530 1530 1530 1529 1529 1529 1528 1528 1527 1527 1527 1526 1526 1525 1525 1525 1525 1525 1525 1524 1524 1524 1524 1524
1502 1503 1505 1508 1511 1514 1517 1519 1521 1522 1524 1525 1526 1526 1526 1527 1528 1528 1529 1529 1529 1529 1528 1528 1527 1527 1527 1526 1526 1526 1525 1524 1524 1524 1523 1523 1523 1523 1523 1522 1521 1521 1521
1499 1501 1504 1507 1510 1513 1515 1517 1519 1521 1522 1523 1524 1525 1525 1526 1526 1527 1527 1528 1528 1528 1527 1527 1526 1526 1525 1525 1524 1524 1523 1522 1522 1522 1521 1521 1521 1521 1520 1520 1518 1518 1519
1497 1500 1502 1505 1508 1510 1513 1515 1517 1518 1520 1521 1522 1523 1524 1525 1525 1525 1526 1526 1526 1526 1525 1525 1525 1524 1523 1523 1522 1522 1522 1521 1521 1520 1520 1519 1519 1519 1518 1517 1516 1515 1515
1495 1498 1499 1502 1505 1507 1510 1513 1515 1516 1518 1519 1520 1522 1523 1523 1523 1524 1524 1524 1524 1524 1524 1524 1523 1522 1522 1521 1521 1520 1520 1519 1518 1518 1517 1517 1516 1516 1515 1515 1514 1513 1513
1492 1495 1498 1500 1503 1505 1508 1510 1512 1514 1515 1517 1518 1520 1521 1521 1521 1522 1522 1522 1522 1522 1522 1522 1521 1520 1520 1519 1519 1518 1517 1517 1516 1515 1515 1514 1514 1513 1513 1512 1512 1512 1510
1490 1493 1495 1498 1501 1503 1506 1508 1510 1512 1514 1515 1516 1517 1518 1518 1519 1520 1520 1520 1520 1520 1520 1519 1519 1518 1518 1517 1516 1515 1515 1514 1513 1513 1512 1511 1511 1510 1510 1509 1509 1509 1508
1489 1492 1494 1498 1500 1503 1504 1506 1507 1508 1511 1513 1514 1515 1516 1516 1517 1517 1517 1517 1517 1517 1517 1516 1516 1515 1515 1514 1514 1513 1512 1511 1511 1510 1510 1509 1508 1508 1507 1506 1506 1505 1505
1488 1492 1494 1497 1499 1500 1502 1504 1506 1506 1508 1510 1512 1512 1513 1514 1514 1514 1515 1515 1515 1515 1514 1514 1513 1513 1512 1512 1511 1510 1509 1509 1508 1507 1507 1506 1505 1505 1504 1503 1502 1502 1501
1490 1492 1494 1496 1497 1499 1500 1502 1504 1505 1506 1508 1509 1510 1511 1511 1512 1512 1512 1512 1512 1512 1511 1511 1510 1510 1509 1509 1508 1508 1507 1506 1505 1504 1504 1503 1502 1501 1501 1500 1499 1499 1498
1490 1491 1493 1496 1497 1498 1500 1501 1502 1504 1504 1506 1507 1508 1508 1509 1509 1510 1509 1509 1509 1509 1508 1508 1507 1507 1506 1506 1505 1505 1504 1503 1502 1501 1500 1500 1499 1498 1498 1497 1496 1495 1494
1489 1490 1492 1494 1495 1497 1498 1500 1501 1502 1503 1503 1504 1505 1506 1506 1507 1507 1507 1507 1506 1506 1505 1505 1504 1504 1503 1503 1502 1502 1501 1500 1499 1498 1497 1496 1496 1495 1494 1493 1492 1492 1490
1489 1490 1491 1493 1494 1495 1496 1498 1499 1500 1500 1501 1502 1503 1503 1504 1503 1503 1504 1504 1504 1503 1503 1502 1502 1501 1501 1500 1499 1499 1498 1497 1496 1495 1494 1493 1492 1491 1491 1490 1489 1489 1487
1489 1490 1491 1492 1493 1494 1495 1496 1497 1498 1499 1499 1500 1500 1500 1501 1501 1501 1501 1501 1501 1500 1500 1499 1499 1498 1498 1497 1497 1496 1495 1494 1493 1492 1491 1490 1489 1488 1487 1486 1485 1485 1484
1489 1489 1490 1491 1493 1493 1494 1494 1495 1496 1497 1497 1498 1498 1498 1498 1498 1498 1498 1498 1498 1497 1496 1496 1496 1495 1495 1494 1494 1493 1493 1492 1491 1490 1488 1487 1486 1485 1484 1483 1482 1481 1481
1488 1489 1489 1490 1491 1492 1492 1493 1493 1494 1495 1496 1496 1496 1496 1496 1496 1496 1495 1495 1495 1494 1493 1493 1493 1492 1492 1492 1491 1490 1490 1489 1488 1487 1486 1485 1484 1483 1482 1480 1479 1478 1477
1488 1489 1489 1490 1490 1491 1491 1492 1492 1492 1493 1493 1494 1494 1494 1494 1494 1493 1493 1492 1492 1491 1490 1490 1490 1489 1489 1489 1488 1488 1487 1486 1485 1484 1483 1482 1481 1480 1479 1477 1476 1474 1473
1487 1488 1489 1489 1489 1490 1490 1490 1491 1491 1492 1492 1492 1492 1492 1491 1491 1491 1490 1490 1489 1488 1488 1487 1487 1486 1486 1485 1485 1485 1484 1482 1481 1480 1479 1478 1477 1476 1475 1474 1472 1471 1470
1486 1487 1488 1488 1489 1489 1489 1489 1489 1490 1490 1490 1490 1490 1489 1489 1488 1488 1487 1486 1486 1485 1485 1484 1484 1483 1483 1482 1481 1481 1480 1479 1478 1477 1476 1475 1474 1473 1472 1470 1469 1468 1467
1484 1485 1486 1487 1488 1488 1488 1488 1488 1488 1488 1488 1487 1487 1487 1486 1486 1485 1484 1483 1483 1482 1482 1481 1481 1480 1479 1479 1478 1477 1476 1476 1474 1473 1473 1472 1470 1469 1468 1467 1466 1465 1464
1483 1483 1484 1485 1486 1486 1486 1487 1486 1486 1486 1485 1485 1484 1484 1483 1483 1483 1482 1481 1480 1480 1479 1478 1478 1477 1476 1475 1474 1473 1473 1472 1471 1469 1469 1468 1467 1465 1464 1463 1462 1461 1460
1483 1483 1483 1483 1483 1484 1484 1484 1484 1484 1483 1483 1482 1482 1481 1481 1480 1480 1479 1478 1478 1477 1477 1476 1475 1474 1473 1472 1472 1470 1469 1468 1467 1466 1465 1463 1462 1461 1460 1459 1458 1457 1456
1481 1482 1482 1482 1482 1482 1481 1481 1481 1481 1480 1479 1479 1478 1478 1478 1477 1477 1476 1475 1475 1475 1474 1473 1473 1472 1471 1470 1469 1468 1466 1465 1464 1463 1461 1459 1459 1457 1456 1455 1454 1453 1452